METEOR 2-8 DEB

Satellite information

Favourite Embed

Satellite Type and Status

DEBRISIN ORBIT

Key statistics

Satellite METEOR 2-8 DEB at a glance.

Uptime

15874

Days in orbit

Revolutions

≈ 14.5

Per day

Orbit

LEO

Low Earth Orbit

Inclination

82.5

Latest

Satellite identification and parameters

Extended collection of information and parameters for METEOR 2-8 DEB.

Object identification

Identified? True

Debris? True

Object name: METEOR 2-8 DEB

International designator: 1982-025AA

Object number (NORAD): 36340

Object ID (CCSDS): 36340

Country: COMMONWEALTH OF INDEPENDENT STATES (CIS)

Current information (Y/N): Y

RCS size: SMALL

Orbital parameters

Period: 99.452 minutes

Inclination: 82.5176 deg

SMA: 7110.523 km

Apoapsis: 746.693 km

Periapsis: 718.084 km

RAAN: 320.9983 deg

Eccentricy: 0.00201174

Argument of periapsis: 192.2893 deg

Mean anomaly: 167.7815 deg

Mean motion: 14.4793945 rev/day

Mean motion (dot): 0.00016047 rev/day2

B* drag term: 0.0043054133 1/REarth

Two-line elements (TLE)

Creation date: Sept. 1, 2025, 10:16 a.m.

Reference frame: TEME

Reference center: EARTH

Epoch: Aug. 31, 2025, 10:55 p.m. UTC

TLE line 0: 0 METEOR 2-8 DEB

TLE line 1: 1 36340U 82025AA 25243.95505229 .00016047 00000-0 43054-2 0 9992

TLE line 2: 2 36340 82.5176 320.9983 0020117 192.2893 167.7815 14.47939450621657

Live tracking on map

Real-time ground track for satellite METEOR 2-8 DEB.

In-orbit conjunctions

A list of the most updated potential collisions computed for object METEOR 2-8 DEB.

Target Orbit TCA Probability of collision Miss distance Type
COSMOS 1818 COOLANT LEO 2024-11-11 14:50:32 0.0007905982 286.0 (m) DEBRIS
CZ-6A DEB SSO 2024-11-09 19:58:03 0.0001610451 437.0 (m) DEBRIS

Associated space launch

Second generation soviet meteorological satellite

METEOR 2-8 DEB was lifted into orbit during the mission ‘Tsiklon-3 | Meteor-2 8’, on board a Tsiklon-3 space rocket.

The launch took place on March 25, 1982, 9:50 a.m. from 32/1.

For more information about the launch, click the button.

Launch to space Tsiklon-3 | Meteor-2 8
Tsiklon-3 | Meteor-2 8

Agency: N/A

Status: Launch Successful

Launch date: March 25, 1982, 9:50 a.m. UTC

Rocket: Tsiklon-3

Launch pad: 32/1

Location: Plesetsk Cosmodrome, Russian Federation

...

Latest news about this satellite

There are no fresh news available about this satellite. Check back as we update our databases every day.


Newsletter sign-up

Weekly statistics, charts and insights to help you stay on top of the space industry.